65.8°F
Current conditions from King Hill
Updated every 5 minutes
 
  Thursday July 24, 2014

Station Historical Data
Daily Summary for March 1, 2010 Units:  Metric    English   Both
« Previous Day
Next Day »
Daily Weekly Monthly Yearly Custom
  High: Low: Average:
Temperature: 2.8 °C -0.5 °C 0.9 °C
Dew Point: -0.8 °C -1.7 °C -1.2 °C
Humidity: 94% 77% 86%
Wind Speed: 9.7km/h 1.6km/h 5.3km/h
Wind Gust: 29km/h - -
Wind- - SSE
Pressure: 1011.7 hPa 1003.6 hPa -
Precipitation: 0 mm    
Historical Graphs
 
 
Tabular Data for March 1, 2010
Time Temperature Dew Point Pressure Wind Wind Speed Wind Gust Humidity Daily Rainfall
00:02 -0.4 °C -1.3 °C 1003.6 hPa North 9.7 km/h 17.7 km/h 94% 0 mm
00:07 -0.4 °C -1.3 °C 1003.6 hPa North 1.6 km/h 17.7 km/h 94% 0 mm
00:12 -0.4 °C -1.3 °C 1003.9 hPa NNW 1.6 km/h 14.5 km/h 94% 0 mm
00:17 -0.4 °C -1.3 °C 1003.9 hPa North 3.2 km/h 16.1 km/h 94% 0 mm
00:22 -0.4 °C -1.3 °C 1003.6 hPa North 4.8 km/h 16.1 km/h 94% 0 mm
00:27 -0.4 °C -1.3 °C 1003.6 hPa North 4.8 km/h 12.9 km/h 94% 0 mm
00:32 -0.4 °C -1.3 °C 1003.9 hPa North 4.8 km/h 16.1 km/h 94% 0 mm
00:37 -0.4 °C -1.3 °C 1003.9 hPa North 3.2 km/h 16.1 km/h 94% 0 mm
00:42 -0.4 °C -1.2 °C 1003.9 hPa NNE 6.4 km/h 17.7 km/h 94% 0 mm
00:47 -0.4 °C -1.4 °C 1003.9 hPa North 1.6 km/h 17.7 km/h 93% 0 mm
00:52 -0.4 °C -1.4 °C 1003.9 hPa North 4.8 km/h 12.9 km/h 93% 0 mm
00:57 -0.4 °C -1.4 °C 1003.9 hPa North 4.8 km/h 12.9 km/h 93% 0 mm
01:02 -0.4 °C -1.4 °C 1003.9 hPa North 3.2 km/h 12.9 km/h 93% 0 mm
01:07 -0.3 °C -1.3 °C 1003.9 hPa NNE 1.6 km/h 12.9 km/h 93% 0 mm
01:12 -0.3 °C -1.3 °C 1003.9 hPa NNE 3.2 km/h 11.3 km/h 93% 0 mm
01:17 -0.3 °C -1.3 °C 1003.9 hPa North 6.4 km/h 14.5 km/h 93% 0 mm
01:22 -0.3 °C -1.3 °C 1003.9 hPa North 6.4 km/h 19.3 km/h 93% 0 mm
01:27 -0.3 °C -1.3 °C 1003.9 hPa North 6.4 km/h 20.9 km/h 93% 0 mm
01:32 -0.3 °C -1.5 °C 1003.9 hPa NNE 4.8 km/h 20.9 km/h 92% 0 mm
01:37 -0.3 °C -1.5 °C 1003.9 hPa North 6.4 km/h 16.1 km/h 92% 0 mm
01:42 -0.3 °C -1.5 °C 1003.9 hPa NNE 3.2 km/h 19.3 km/h 92% 0 mm
01:47 -0.3 °C -1.5 °C 1003.9 hPa North 6.4 km/h 19.3 km/h 92% 0 mm
01:52 -0.3 °C -1.5 °C 1003.9 hPa North 4.8 km/h 17.7 km/h 92% 0 mm
01:57 -0.3 °C -1.5 °C 1003.9 hPa NNE 4.8 km/h 14.5 km/h 92% 0 mm
02:02 -0.3 °C -1.5 °C 1003.9 hPa North 6.4 km/h 14.5 km/h 92% 0 mm
02:07 -0.4 °C -1.6 °C 1003.9 hPa North 4.8 km/h 11.3 km/h 92% 0 mm
02:12 -0.4 °C -1.6 °C 1003.9 hPa NNE 3.2 km/h 9.7 km/h 92% 0 mm
02:17 -0.4 °C -1.6 °C 1003.9 hPa North 3.2 km/h 12.9 km/h 92% 0 mm
02:22 -0.5 °C -1.7 °C 1003.9 hPa North 1.6 km/h 12.9 km/h 92% 0 mm
02:32 -0.5 °C -1.7 °C 1003.6 hPa NNE 4.8 km/h 17.7 km/h 92% 0 mm
02:37 -0.5 °C -1.5 °C 1003.6 hPa North 3.2 km/h 17.7 km/h 93% 0 mm
02:42 -0.5 °C -1.5 °C 1003.6 hPa North 6.4 km/h 19.3 km/h 93% 0 mm
02:47 -0.5 °C -1.5 °C 1003.6 hPa NE 1.6 km/h 19.3 km/h 93% 0 mm
02:52 -0.5 °C -1.5 °C 1003.6 hPa NNE 3.2 km/h 20.9 km/h 93% 0 mm
02:57 -0.5 °C -1.5 °C 1003.6 hPa NNE 3.2 km/h 20.9 km/h 93% 0 mm
03:02 -0.5 °C -1.5 °C 1003.6 hPa North 4.8 km/h 11.3 km/h 93% 0 mm
03:07 -0.5 °C -1.5 °C 1003.6 hPa North 3.2 km/h 9.7 km/h 93% 0 mm
03:12 -0.5 °C -1.5 °C 1003.6 hPa North 4.8 km/h 11.3 km/h 93% 0 mm
03:17 -0.4 °C -1.4 °C 1003.6 hPa North 1.6 km/h 11.3 km/h 93% 0 mm
03:22 -0.4 °C -1.4 °C 1003.6 hPa North 3.2 km/h 12.9 km/h 93% 0 mm
03:27 -0.4 °C -1.4 °C 1003.6 hPa North 6.4 km/h 17.7 km/h 93% 0 mm
03:32 -0.4 °C -1.4 °C 1003.6 hPa North 3.2 km/h 17.7 km/h 93% 0 mm
03:37 -0.3 °C -1.3 °C 1003.6 hPa North 4.8 km/h 14.5 km/h 93% 0 mm
03:42 -0.4 °C -1.4 °C 1003.6 hPa North 4.8 km/h 11.3 km/h 93% 0 mm
03:47 -0.3 °C -1.3 °C 1003.6 hPa North 6.4 km/h 16.1 km/h 93% 0 mm
03:52 -0.3 °C -1.3 °C 1003.9 hPa North 4.8 km/h 16.1 km/h 93% 0 mm
03:57 -0.3 °C -1.3 °C 1003.6 hPa North 6.4 km/h 14.5 km/h 93% 0 mm
04:02 -0.3 °C -1.3 °C 1003.9 hPa North 6.4 km/h 16.1 km/h 93% 0 mm
04:07 -0.4 °C -1.4 °C 1003.9 hPa North 6.4 km/h 17.7 km/h 93% 0 mm
04:12 -0.4 °C -1.4 °C 1003.9 hPa North 4.8 km/h 17.7 km/h 93% 0 mm
04:17 -0.4 °C -1.4 °C 1003.9 hPa North 6.4 km/h 20.9 km/h 93% 0 mm
04:22 -0.4 °C -1.4 °C 1003.9 hPa North 6.4 km/h 20.9 km/h 93% 0 mm
04:27 -0.4 °C -1.4 °C 1003.9 hPa North 4.8 km/h 16.1 km/h 93% 0 mm
04:32 -0.4 °C -1.4 °C 1003.9 hPa North 4.8 km/h 12.9 km/h 93% 0 mm
04:37 -0.4 °C -1.4 °C 1003.9 hPa North 8 km/h 17.7 km/h 93% 0 mm
04:42 -0.4 °C -1.4 °C 1003.9 hPa North 4.8 km/h 17.7 km/h 93% 0 mm
04:47 -0.4 °C -1.4 °C 1003.9 hPa NNE 6.4 km/h 12.9 km/h 93% 0 mm
04:52 -0.4 °C -1.4 °C 1003.9 hPa NNE 8 km/h 17.7 km/h 93% 0 mm
04:57 -0.4 °C -1.4 °C 1003.9 hPa North 1.6 km/h 17.7 km/h 93% 0 mm
05:02 -0.4 °C -1.4 °C 1004.3 hPa NNE 3.2 km/h 12.9 km/h 93% 0 mm
05:07 -0.4 °C -1.4 °C 1004.3 hPa NNE 6.4 km/h 16.1 km/h 93% 0 mm
05:12 -0.4 °C -1.4 °C 1004.3 hPa North 3.2 km/h 16.1 km/h 93% 0 mm
05:17 -0.5 °C -1.5 °C 1004.3 hPa NNE 3.2 km/h 11.3 km/h 93% 0 mm
05:22 -0.5 °C -1.5 °C 1004.3 hPa North 3.2 km/h 12.9 km/h 93% 0 mm
05:27 -0.5 °C -1.5 °C 1004.3 hPa North 4.8 km/h 14.5 km/h 93% 0 mm
05:32 -0.5 °C -1.5 °C 1004.3 hPa North 6.4 km/h 17.7 km/h 93% 0 mm
05:37 -0.5 °C -1.5 °C 1004.3 hPa North 6.4 km/h 19.3 km/h 93% 0 mm
05:42 -0.5 °C -1.5 °C 1004.3 hPa North 3.2 km/h 19.3 km/h 93% 0 mm
05:47 -0.5 °C -1.5 °C 1004.3 hPa NNE 3.2 km/h 16.1 km/h 93% 0 mm
05:52 -0.5 °C -1.5 °C 1004.3 hPa North 6.4 km/h 17.7 km/h 93% 0 mm
05:57 -0.5 °C -1.5 °C 1004.3 hPa North 4.8 km/h 17.7 km/h 93% 0 mm
06:02 -0.5 °C -1.5 °C 1004.3 hPa NNE 6.4 km/h 20.9 km/h 93% 0 mm
06:07 -0.5 °C -1.5 °C 1004.6 hPa North 4.8 km/h 20.9 km/h 93% 0 mm
06:12 -0.5 °C -1.5 °C 1004.6 hPa NNE 8 km/h 17.7 km/h 93% 0 mm
06:17 -0.5 °C -1.5 °C 1004.6 hPa North 4.8 km/h 17.7 km/h 93% 0 mm
06:22 -0.5 °C -1.5 °C 1004.6 hPa North 9.7 km/h 17.7 km/h 93% 0 mm
06:27 -0.5 °C -1.5 °C 1004.6 hPa North 8 km/h 20.9 km/h 93% 0 mm
06:32 -0.5 °C -1.5 °C 1004.6 hPa North 6.4 km/h 20.9 km/h 93% 0 mm
06:37 -0.5 °C -1.5 °C 1004.6 hPa North 6.4 km/h 17.7 km/h 93% 0 mm
06:42 -0.5 °C -1.5 °C 1005 hPa North 4.8 km/h 20.9 km/h 93% 0 mm
06:47 -0.5 °C -1.5 °C 1005 hPa North 6.4 km/h 20.9 km/h 93% 0 mm
06:52 -0.4 °C -1.4 °C 1005 hPa North 4.8 km/h 20.9 km/h 93% 0 mm
06:57 -0.4 °C -1.4 °C 1005 hPa North 4.8 km/h 14.5 km/h 93% 0 mm
07:02 -0.4 °C -1.4 °C 1005 hPa North 6.4 km/h 17.7 km/h 93% 0 mm
07:07 -0.4 °C -1.4 °C 1005 hPa North 6.4 km/h 17.7 km/h 93% 0 mm
07:12 -0.4 °C -1.4 °C 1005.3 hPa NNE 4.8 km/h 19.3 km/h 93% 0 mm
07:17 -0.4 °C -1.4 °C 1005 hPa North 4.8 km/h 19.3 km/h 93% 0 mm
07:22 -0.3 °C -1.3 °C 1005.3 hPa North 8 km/h 22.5 km/h 93% 0 mm
07:27 -0.3 °C -1.3 °C 1005.3 hPa North 4.8 km/h 22.5 km/h 93% 0 mm
07:32 -0.3 °C -1.3 °C 1005.3 hPa North 6.4 km/h 19.3 km/h 93% 0 mm
07:37 -0.3 °C -1.3 °C 1005.3 hPa North 4.8 km/h 19.3 km/h 93% 0 mm
07:42 -0.3 °C -1.3 °C 1005.3 hPa North 6.4 km/h 14.5 km/h 93% 0 mm
07:47 -0.3 °C -1.3 °C 1005.6 hPa North 6.4 km/h 16.1 km/h 93% 0 mm
07:52 -0.2 °C -1.2 °C 1005.3 hPa North 4.8 km/h 17.7 km/h 93% 0 mm
07:57 -0.2 °C -1.2 °C 1005.3 hPa North 9.7 km/h 20.9 km/h 93% 0 mm
08:02 -0.2 °C -1.2 °C 1005.6 hPa North 9.7 km/h 20.9 km/h 93% 0 mm
08:07 -0.2 °C -1.2 °C 1005.6 hPa North 4.8 km/h 19.3 km/h 93% 0 mm
08:12 -0.1 °C -1.1 °C 1005.6 hPa NNE 6.4 km/h 17.7 km/h 93% 0 mm
08:17 -0.1 °C -1.1 °C 1005.6 hPa NNE 8 km/h 17.7 km/h 93% 0 mm
08:22 -0.1 °C -1.1 °C 1005.6 hPa North 6.4 km/h 14.5 km/h 93% 0 mm
08:27 0 °C -1 °C 1005.6 hPa North 6.4 km/h 16.1 km/h 93% 0 mm
08:32 0 °C -1 °C 1005.6 hPa North 4.8 km/h 17.7 km/h 93% 0 mm
08:37 0 °C -1 °C 1005.6 hPa North 9.7 km/h 24.1 km/h 93% 0 mm
08:42 0.1 °C -0.9 °C 1005.6 hPa North 4.8 km/h 24.1 km/h 93% 0 mm
08:47 0.1 °C -0.9 °C 1006 hPa North 8 km/h 20.9 km/h 93% 0 mm
08:52 0.1 °C -1.1 °C 1006 hPa North 4.8 km/h 20.9 km/h 92% 0 mm
08:57 0.2 °C -1 °C 1006 hPa North 6.4 km/h 17.7 km/h 92% 0 mm
09:02 0.2 °C -1 °C 1006 hPa North 8 km/h 22.5 km/h 92% 0 mm
09:07 0.2 °C -1 °C 1006 hPa NNE 6.4 km/h 22.5 km/h 92% 0 mm
09:12 0.2 °C -1 °C 1006.3 hPa North 4.8 km/h 16.1 km/h 92% 0 mm
09:17 0.2 °C -0.9 °C 1006.3 hPa North 6.4 km/h 14.5 km/h 92% 0 mm
09:22 0.2 °C -0.9 °C 1006.3 hPa NNE 6.4 km/h 17.7 km/h 92% 0 mm
09:27 0.2 °C -0.9 °C 1006.3 hPa North 6.4 km/h 17.7 km/h 92% 0 mm
09:32 0.2 °C -0.9 °C 1006.7 hPa North 4.8 km/h 14.5 km/h 92% 0 mm
09:37 0.3 °C -0.9 °C 1006.7 hPa North 4.8 km/h 16.1 km/h 92% 0 mm
09:42 0.3 °C -0.9 °C 1006.7 hPa North 4.8 km/h 16.1 km/h 92% 0 mm
09:47 0.3 °C -1 °C 1006.7 hPa North 8 km/h 16.1 km/h 91% 0 mm
09:52 0.3 °C -1 °C 1006.7 hPa North 9.7 km/h 19.3 km/h 91% 0 mm
09:57 0.3 °C -1 °C 1006.7 hPa North 8 km/h 19.3 km/h 91% 0 mm
10:02 0.3 °C -0.9 °C 1006.7 hPa North 6.4 km/h 16.1 km/h 91% 0 mm
10:07 0.4 °C -0.9 °C 1006.7 hPa North 6.4 km/h 16.1 km/h 91% 0 mm
10:12 0.4 °C -0.9 °C 1006.7 hPa North 6.4 km/h 17.7 km/h 91% 0 mm
10:17 0.4 °C -0.9 °C 1006.7 hPa North 6.4 km/h 17.7 km/h 91% 0 mm
10:22 0.4 °C -0.8 °C 1006.7 hPa NNE 3.2 km/h 19.3 km/h 91% 0 mm
10:27 0.4 °C -1 °C 1006.7 hPa North 4.8 km/h 22.5 km/h 90% 0 mm
10:32 0.4 °C -1 °C 1007 hPa NNE 4.8 km/h 22.5 km/h 90% 0 mm
10:37 0.5 °C -0.9 °C 1007 hPa North 6.4 km/h 24.1 km/h 90% 0 mm
10:42 0.6 °C -0.9 °C 1007 hPa NNE 4.8 km/h 24.1 km/h 90% 0 mm
10:47 0.6 °C -1.1 °C 1007 hPa North 6.4 km/h 19.3 km/h 89% 0 mm
10:52 0.6 °C -1 °C 1007 hPa North 6.4 km/h 20.9 km/h 89% 0 mm
10:57 0.7 °C -0.9 °C 1007 hPa North 4.8 km/h 20.9 km/h 89% 0 mm
11:02 0.7 °C -0.9 °C 1007 hPa NNE 9.7 km/h 29 km/h 89% 0 mm
11:07 0.8 °C -1 °C 1007 hPa NNW 8 km/h 29 km/h 88% 0 mm
11:12 0.8 °C -0.9 °C 1007 hPa NNW 6.4 km/h 19.3 km/h 88% 0 mm
11:17 0.9 °C -0.9 °C 1007 hPa NNE 6.4 km/h 19.3 km/h 88% 0 mm
11:22 1 °C -0.8 °C 1007 hPa NNE 4.8 km/h 16.1 km/h 88% 0 mm
11:27 1.1 °C -0.9 °C 1007 hPa North 4.8 km/h 16.1 km/h 87% 0 mm
11:32 1.1 °C -0.8 °C 1007 hPa North 4.8 km/h 17.7 km/h 87% 0 mm
11:37 1.2 °C -0.8 °C 1007 hPa North 4.8 km/h 19.3 km/h 87% 0 mm
11:42 1.3 °C -0.8 °C 1007 hPa North 4.8 km/h 19.3 km/h 86% 0 mm
11:47 1.3 °C -0.8 °C 1007 hPa North 4.8 km/h 11.3 km/h 86% 0 mm
11:52 1.3 °C -0.8 °C 1007 hPa North 8 km/h 17.7 km/h 86% 0 mm
11:57 1.3 °C -0.9 °C 1007 hPa North 4.8 km/h 17.7 km/h 85% 0 mm
12:02 1.4 °C -0.8 °C 1007 hPa North 4.8 km/h 16.1 km/h 85% 0 mm
12:07 1.4 °C -0.9 °C 1007 hPa North 6.4 km/h 24.1 km/h 84% 0 mm
12:12 1.4 °C -0.9 °C 1007 hPa North 8 km/h 24.1 km/h 84% 0 mm
12:17 1.5 °C -0.9 °C 1007 hPa North 4.8 km/h 20.9 km/h 84% 0 mm
12:22 1.6 °C -0.8 °C 1007.3 hPa North 6.4 km/h 19.3 km/h 84% 0 mm
12:27 1.6 °C -1 °C 1007.3 hPa North 8 km/h 20.9 km/h 83% 0 mm
12:32 1.6 °C -1 °C 1007.3 hPa North 6.4 km/h 20.9 km/h 83% 0 mm
12:37 1.6 °C -1 °C 1007.3 hPa North 8 km/h 20.9 km/h 83% 0 mm
12:42 1.6 °C -1 °C 1007.3 hPa NNE 6.4 km/h 20.9 km/h 83% 0 mm
12:47 1.5 °C -1.2 °C 1007.3 hPa NNE 8 km/h 17.7 km/h 82% 0 mm
12:52 1.6 °C -1.2 °C 1007.3 hPa North 6.4 km/h 24.1 km/h 82% 0 mm
12:57 1.6 °C -1.2 °C 1007.3 hPa North 8 km/h 24.1 km/h 82% 0 mm
13:02 1.6 °C -1.1 °C 1007.3 hPa North 4.8 km/h 20.9 km/h 82% 0 mm
13:07 1.7 °C -0.9 °C 1007.3 hPa North 3.2 km/h 14.5 km/h 83% 0 mm
13:12 1.7 °C -1 °C 1007.3 hPa North 9.7 km/h 22.5 km/h 82% 0 mm
13:17 1.8 °C -1.1 °C 1007.3 hPa North 9.7 km/h 22.5 km/h 81% 0 mm
13:22 1.8 °C -1.1 °C 1007.3 hPa North 9.7 km/h 20.9 km/h 81% 0 mm
13:27 1.8 °C -0.9 °C 1007.3 hPa North 3.2 km/h 20.9 km/h 82% 0 mm
13:32 1.8 °C -1.1 °C 1007.7 hPa North 9.7 km/h 25.7 km/h 81% 0 mm
13:37 1.8 °C -1.1 °C 1007.7 hPa North 6.4 km/h 25.7 km/h 81% 0 mm
13:42 1.8 °C -1.1 °C 1007.3 hPa North 6.4 km/h 25.7 km/h 81% 0 mm
13:47 1.9 °C -1 °C 1007.7 hPa NNW 9.7 km/h 25.7 km/h 81% 0 mm
13:52 1.9 °C -1 °C 1007.7 hPa North 8 km/h 17.7 km/h 81% 0 mm
13:57 1.9 °C -1 °C 1007.7 hPa North 6.4 km/h 20.9 km/h 81% 0 mm
14:02 1.9 °C -1.2 °C 1007.7 hPa North 4.8 km/h 20.9 km/h 80% 0 mm
14:07 1.9 °C -1.2 °C 1007.7 hPa North 8 km/h 27.4 km/h 80% 0 mm
14:12 1.9 °C -0.9 °C 1007.7 hPa North 4.8 km/h 27.4 km/h 81% 0 mm
14:17 1.9 °C -1.2 °C 1007.7 hPa North 6.4 km/h 14.5 km/h 80% 0 mm
14:22 2 °C -1.1 °C 1007.7 hPa NNW 3.2 km/h 17.7 km/h 80% 0 mm
14:27 2.1 °C -1.1 °C 1007.7 hPa NNE 3.2 km/h 17.7 km/h 80% 0 mm
14:32 2.1 °C -1 °C 1007.7 hPa North 6.4 km/h 19.3 km/h 80% 0 mm
14:37 2.2 °C -1.1 °C 1007.7 hPa North 4.8 km/h 19.3 km/h 79% 0 mm
14:42 2.2 °C -1.1 °C 1008 hPa North 3.2 km/h 19.3 km/h 79% 0 mm
14:47 2.3 °C -1 °C 1008 hPa NNE 4.8 km/h 19.3 km/h 79% 0 mm
14:52 2.3 °C -1.1 °C 1008 hPa North 6.4 km/h 17.7 km/h 78% 0 mm
14:57 2.3 °C -1.1 °C 1008 hPa NNW 4.8 km/h 17.7 km/h 78% 0 mm
15:02 2.4 °C -1.1 °C 1008 hPa NNE 4.8 km/h 19.3 km/h 78% 0 mm
15:07 2.4 °C -1 °C 1008 hPa North 6.4 km/h 19.3 km/h 78% 0 mm
15:12 2.4 °C -1.2 °C 1008.4 hPa North 8 km/h 12.9 km/h 77% 0 mm
15:17 2.4 °C -1.2 °C 1008.4 hPa NNE 4.8 km/h 12.9 km/h 77% 0 mm
15:22 2.5 °C -1.1 °C 1008.4 hPa North 6.4 km/h 17.7 km/h 77% 0 mm
15:27 2.5 °C -1.1 °C 1008.4 hPa North 8 km/h 20.9 km/h 77% 0 mm
15:32 2.6 °C -1.1 °C 1008.4 hPa North 8 km/h 24.1 km/h 77% 0 mm
15:37 2.6 °C -1.1 °C 1008.4 hPa North 4.8 km/h 24.1 km/h 77% 0 mm
15:42 2.6 °C -1.1 °C 1008.4 hPa North 4.8 km/h 11.3 km/h 77% 0 mm
15:47 2.6 °C -1 °C 1008.4 hPa North 8 km/h 19.3 km/h 77% 0 mm
15:52 2.6 °C -1 °C 1008.4 hPa North 4.8 km/h 19.3 km/h 77% 0 mm
15:57 2.6 °C -1 °C 1008.7 hPa North 4.8 km/h 11.3 km/h 77% 0 mm
16:02 2.7 °C -0.9 °C 1008.7 hPa North 4.8 km/h 12.9 km/h 77% 0 mm
16:07 2.7 °C -0.9 °C 1008.7 hPa North 4.8 km/h 16.1 km/h 77% 0 mm
16:12 2.8 °C -0.8 °C 1008.7 hPa North 3.2 km/h 16.1 km/h 77% 0 mm
16:17 2.8 °C -0.8 °C 1009 hPa NNE 3.2 km/h 9.7 km/h 77% 0 mm
16:22 2.8 °C -0.8 °C 1009 hPa North 3.2 km/h 9.7 km/h 77% 0 mm
16:27 2.7 °C -0.9 °C 1009 hPa NNW 4.8 km/h 11.3 km/h 77% 0 mm
16:32 2.7 °C -0.8 °C 1009 hPa NNW 4.8 km/h 24.1 km/h 78% 0 mm
16:37 2.6 °C -0.9 °C 1009 hPa North 3.2 km/h 24.1 km/h 78% 0 mm
16:42 2.6 °C -0.9 °C 1009 hPa North 4.8 km/h 17.7 km/h 78% 0 mm
16:47 2.4 °C -0.8 °C 1009 hPa NNW 4.8 km/h 19.3 km/h 79% 0 mm
16:52 2.4 °C -0.9 °C 1009.4 hPa NNW 8 km/h 19.3 km/h 79% 0 mm
16:57 2.3 °C -0.9 °C 1009.4 hPa North 6.4 km/h 22.5 km/h 79% 0 mm
17:02 2.3 °C -0.9 °C 1009.4 hPa NNW 6.4 km/h 22.5 km/h 79% 0 mm
17:07 2.3 °C -0.9 °C 1009.4 hPa NNW 4.8 km/h 24.1 km/h 79% 0 mm
17:12 2.3 °C -1 °C 1009.4 hPa North 3.2 km/h 24.1 km/h 79% 0 mm
17:17 2.2 °C -0.9 °C 1009.4 hPa North 3.2 km/h 11.3 km/h 80% 0 mm
17:22 2.2 °C -0.9 °C 1009.4 hPa NNW 3.2 km/h 14.5 km/h 80% 0 mm
17:27 2.2 °C -0.9 °C 1009.7 hPa NNW 4.8 km/h 14.5 km/h 80% 0 mm
17:32 2.2 °C -0.9 °C 1009.7 hPa NNW 6.4 km/h 14.5 km/h 80% 0 mm
17:37 2.2 °C -0.9 °C 1009.7 hPa NNW 4.8 km/h 16.1 km/h 80% 0 mm
17:42 2.2 °C -0.9 °C 1009.7 hPa NNW 6.4 km/h 16.1 km/h 80% 0 mm
17:47 2.2 °C -0.9 °C 1009.7 hPa NNW 4.8 km/h 19.3 km/h 80% 0 mm
17:52 2.2 °C -0.9 °C 1010 hPa NNW 4.8 km/h 19.3 km/h 80% 0 mm
17:57 2.2 °C -0.9 °C 1010 hPa NNW 6.4 km/h 14.5 km/h 80% 0 mm
18:02 2.2 °C -0.9 °C 1010 hPa North 6.4 km/h 22.5 km/h 80% 0 mm
18:07 2.2 °C -1.1 °C 1010 hPa North 8 km/h 22.5 km/h 79% 0 mm
18:12 2.2 °C -1.1 °C 1010.4 hPa North 8 km/h 19.3 km/h 79% 0 mm
18:17 2.2 °C -1.1 °C 1010.4 hPa North 8 km/h 19.3 km/h 79% 0 mm
18:22 2.3 °C -1 °C 1010.4 hPa NNW 9.7 km/h 24.1 km/h 79% 0 mm
18:27 2.3 °C -1 °C 1010.4 hPa North 4.8 km/h 24.1 km/h 79% 0 mm
18:32 2.3 °C -1 °C 1010.4 hPa North 6.4 km/h 22.5 km/h 79% 0 mm
18:37 2.3 °C -0.9 °C 1010.4 hPa NNW 6.4 km/h 22.5 km/h 79% 0 mm
18:42 2.3 °C -1 °C 1010.4 hPa NNW 8 km/h 22.5 km/h 79% 0 mm
18:47 2.3 °C -0.9 °C 1010.7 hPa NNW 9.7 km/h 20.9 km/h 79% 0 mm
18:52 2.3 °C -0.9 °C 1010.7 hPa NNW 8 km/h 20.9 km/h 79% 0 mm
18:57 2.3 °C -0.9 °C 1010.7 hPa North 6.4 km/h 17.7 km/h 79% 0 mm
19:07 2.3 °C -1 °C 1010.7 hPa North 6.4 km/h 16.1 km/h 79% 0 mm
19:12 2.3 °C -1 °C 1010.7 hPa NNW 8 km/h 17.7 km/h 79% 0 mm
19:17 2.3 °C -1 °C 1010.7 hPa NNW 9.7 km/h 17.7 km/h 79% 0 mm
19:22 2.3 °C -1 °C 1010.7 hPa NNW 9.7 km/h 20.9 km/h 79% 0 mm
19:27 2.3 °C -0.9 °C 1010.7 hPa North 4.8 km/h 20.9 km/h 79% 0 mm
19:32 2.3 °C -1 °C 1010.7 hPa North 8 km/h 16.1 km/h 79% 0 mm
19:37 2.3 °C -1 °C 1010.7 hPa North 6.4 km/h 16.1 km/h 79% 0 mm
19:42 2.3 °C -1 °C 1011.1 hPa North 4.8 km/h 14.5 km/h 79% 0 mm
19:47 2.2 °C -1.1 °C 1011.1 hPa North 4.8 km/h 12.9 km/h 79% 0 mm
19:52 2.2 °C -0.9 °C 1011.1 hPa North 6.4 km/h 14.5 km/h 80% 0 mm
19:57 2.2 °C -0.9 °C 1011.1 hPa NNE 3.2 km/h 14.5 km/h 80% 0 mm
20:02 2.2 °C -0.9 °C 1011.1 hPa North 4.8 km/h 14.5 km/h 80% 0 mm
20:07 2.2 °C -0.9 °C 1011.1 hPa NNW 4.8 km/h 14.5 km/h 80% 0 mm
20:12 2.2 °C -0.9 °C 1011.1 hPa North 1.6 km/h 14.5 km/h 80% 0 mm
20:17 2.1 °C -1.1 °C 1011.1 hPa North 3.2 km/h 8 km/h 80% 0 mm
20:22 2.1 °C -1.1 °C 1011.1 hPa North 3.2 km/h 11.3 km/h 80% 0 mm
20:27 2.1 °C -1.1 °C 1011.1 hPa NNE 1.6 km/h 11.3 km/h 80% 0 mm
20:32 2 °C -0.9 °C 1011.1 hPa Calm   9.7 km/h 81% 0 mm
20:37 1.9 °C -0.9 °C 1011.1 hPa NNW 1.6 km/h 9.7 km/h 81% 0 mm
20:47 1.9 °C -1 °C 1011.1 hPa NNE 1.6 km/h 8 km/h 81% 0 mm
20:52 1.8 °C -0.9 °C 1011.1 hPa Calm   8 km/h 82% 0 mm
20:57 1.8 °C -1.1 °C 1011.1 hPa North 1.6 km/h 8 km/h 81% 0 mm
21:02 1.8 °C -1.1 °C 1011.1 hPa NNE 1.6 km/h 9.7 km/h 81% 0 mm
21:07 1.8 °C -0.9 °C 1011.1 hPa North 1.6 km/h 9.7 km/h 82% 0 mm
21:12 1.8 °C -0.9 °C 1011.4 hPa NNE 1.6 km/h 8 km/h 82% 0 mm
21:17 1.8 °C -1.1 °C 1011.1 hPa North 1.6 km/h 11.3 km/h 81% 0 mm
21:22 1.8 °C -1.1 °C 1011.4 hPa NNE 1.6 km/h 11.3 km/h 81% 0 mm
21:27 1.9 °C -1 °C 1011.4 hPa North 1.6 km/h 9.7 km/h 81% 0 mm
21:32 1.9 °C -1 °C 1011.4 hPa NNE 4.8 km/h 12.9 km/h 81% 0 mm
21:37 1.9 °C -1 °C 1011.4 hPa NNE 6.4 km/h 12.9 km/h 81% 0 mm
21:42 1.9 °C -1 °C 1011.4 hPa NNE 1.6 km/h 12.9 km/h 81% 0 mm
21:47 1.8 °C -1.1 °C 1011.4 hPa Calm   8 km/h 81% 0 mm
21:52 1.8 °C -1.1 °C 1011.4 hPa Calm   6.4 km/h 81% 0 mm
21:57 1.7 °C -1.2 °C 1011.4 hPa North 1.6 km/h 6.4 km/h 81% 0 mm
22:02 1.7 °C -1.2 °C 1011.4 hPa NNE 3.2 km/h 9.7 km/h 81% 0 mm
22:07 1.7 °C -1 °C 1011.4 hPa Calm   9.7 km/h 82% 0 mm
22:12 1.7 °C -1.1 °C 1011.4 hPa Calm   8 km/h 82% 0 mm
22:17 1.7 °C -1.2 °C 1011.4 hPa Calm   4.8 km/h 81% 0 mm
22:22 1.7 °C -1.2 °C 1011.4 hPa NNE 1.6 km/h 6.4 km/h 81% 0 mm
22:27 1.7 °C -1.2 °C 1011.4 hPa NNE 1.6 km/h 6.4 km/h 81% 0 mm
22:32 1.7 °C -1.1 °C 1011.7 hPa Calm   4.8 km/h 82% 0 mm
22:37 1.6 °C -1.1 °C 1011.4 hPa Calm   6.4 km/h 82% 0 mm
22:42 1.6 °C -1.2 °C 1011.4 hPa Calm   6.4 km/h 82% 0 mm
22:47 1.5 °C -1.2 °C 1011.4 hPa Calm   4.8 km/h 82% 0 mm
22:52 1.5 °C -1.2 °C 1011.4 hPa NNE 1.6 km/h 4.8 km/h 82% 0 mm
22:57 1.5 °C -1.2 °C 1011.7 hPa Calm   4.8 km/h 82% 0 mm
23:02 1.6 °C -1.2 °C 1011.7 hPa Calm   6.4 km/h 82% 0 mm
23:07 1.5 °C -1.2 °C 1011.4 hPa Calm   6.4 km/h 82% 0 mm
23:12 1.4 °C -1.3 °C 1011.4 hPa Calm   4.8 km/h 82% 0 mm
23:17 1.4 °C -1.3 °C 1011.4 hPa Calm   4.8 km/h 82% 0 mm
23:22 1.3 °C -1.2 °C 1011.4 hPa Calm   4.8 km/h 83% 0 mm
23:27 1.3 °C -1.2 °C 1011.4 hPa Calm   4.8 km/h 83% 0 mm
23:32 1.3 °C -1.2 °C 1011.4 hPa ENE 1.6 km/h 4.8 km/h 83% 0 mm
23:37 1.3 °C -1.2 °C 1011.4 hPa Calm   3.2 km/h 83% 0 mm
23:42 1.3 °C -1.2 °C 1011.4 hPa Calm   8 km/h 83% 0 mm
23:47 1.3 °C -1.4 °C 1011.4 hPa NNE 1.6 km/h 8 km/h 82% 0 mm
23:52 1.3 °C -1.4 °C 1011.4 hPa Calm   6.4 km/h 82% 0 mm
23:57 1.3 °C -1.4 °C 1011.4 hPa NE 1.6 km/h 6.4 km/h 82% 0 mm
Westford Weather
Compliments of Weather Underground

 
 
Current Radar Loop:

Copyright © WestfordWeather.net 2007-2014. All rights reserved.